This demonstration page uses our WeatherBlox Daily Observations layout. Learn more.

Left ArrowRight Arrow

Hourly Observations for December 18, 2016

Temp ( °F °C ) Dew Point ( °F °C ) Humidity (%) Winds ( mph kmh ) Pressure ( in mb ) Visibility ( mi km ) Precip ( " mm )
12:53 am 00:53 Cloudy 8 -13.3 -1 -18.3 66 66 SW 21 33 30.18 1022 10 16 0.00 0.00
1:53 am 01:53 Mostly Clear 8 -13.3 0 -17.8 69 69 SSW 25 41 30.18 1022 10 16 0.00 0.00
2:53 am 02:53 Cloudy 9 -12.8 1 -17.2 70 70 SW 24 39 30.19 1022 10 16 0.00 0.00
3:53 am 03:53 Mostly Clear 9 -12.8 1 -17.2 70 70 SW 26 43 30.18 1022 9 14 0.00 0.00
4:53 am 04:53 Clear 10 -12.2 2 -16.7 69 69 SW 33 54 30.16 1021 7 11 0.00 0.00
5:53 am 05:53 Cloudy 11 -11.7 2 -16.7 67 67 WSW 22 35 30.19 1022 10 16 0.00 0.00
6:53 am 06:53 Cloudy 12 -11.1 2 -16.7 64 64 SW 26 43 30.18 1022 10 16 0.00 0.00
7:53 am 07:53 Mostly Cloudy 13 -10.6 4 -15.6 67 67 WSW 22 35 30.16 1022 9 14 0.00 0.00
8:53 am 08:53 Hazy 15 -9.4 7 -13.9 70 70 SSW 31 50 30.14 1021 6 10 0.00 0.00
9:53 am 09:53 Hazy 18 -7.8 9 -12.8 68 68 SW 31 50 30.14 1021 6 10 0.00 0.00
10:48 am 10:48 Hazy 19 -7 12 -11 73 73 SSW 37 59 30.18 1022 3 4 0.00 0.00
10:53 am 10:53 Hazy 20 -6.7 12 -11.1 71 71 SW 35 56 30.13 1020 3 4 0.00 0.00
11:02 am 11:02 Hazy 19 -7 12 -11 73 73 SW 31 50 30.15 1021 4 6 0.00 0.00
11:22 am 11:22 Hazy 21 -6 14 -10 74 74 SW 36 57 30.15 1021 2 3 0.00 0.00
11:40 am 11:40 Hazy 21 -6 14 -10 74 74 SW 32 52 30.15 1021 3 5 0.00 0.00
11:53 am 11:53 Hazy 22 -5.6 15 -9.4 75 75 SW 33 54 30.10 1019 5 8 0.00 0.00
12:53 pm 12:53 Cloudy 24 -4.4 16 -8.9 71 71 SW 28 44 30.12 1020 10 16 0.00 0.00
1:53 pm 13:53 Mostly Sunny 24 -4.4 16 -8.9 71 71 SW 21 33 30.11 1020 10 16 0.00 0.00
2:53 pm 14:53 Sunny 26 -3.3 18 -7.8 71 71 SW 24 39 30.11 1020 10 16 0.00 0.00
3:53 pm 15:53 Sunny 24 -4.4 17 -8.3 75 75 SW 30 48 30.10 1019 10 16 0.00 0.00
4:53 pm 16:53 Clear 23 -5 16 -8.9 74 74 SW 28 44 30.11 1020 10 16 0.00 0.00
5:53 pm 17:53 Clear 23 -5 16 -8.9 74 74 SW 28 44 30.12 1020 10 16 0.00 0.00
6:53 pm 18:53 Clear 22 -5.6 14 -10 71 71 SSW 26 43 30.14 1021 10 16 0.00 0.00
7:53 pm 19:53 Clear 22 -5.6 15 -9.4 75 75 SW 30 48 30.12 1020 10 16 0.00 0.00
8:53 pm 20:53 Clear 23 -5 16 -8.9 74 74 SSW 30 48 30.11 1020 10 16 0.00 0.00
9:53 pm 21:53 Clear 23 -5 16 -8.9 74 74 SW 30 48 30.09 1019 10 16 0.00 0.00
10:53 pm 22:53 Clear 24 -4.4 16 -8.9 71 71 SW 28 44 30.10 1019 10 16 0.00 0.00
11:53 pm 23:53 Clear 25 -3.9 17 -8.3 72 72 SSW 32 52 30.06 1018 10 16 0.00 0.00

Powered by AerisWeather